Location: Austin
(30.3000°N, 97.7500°W)
Time: 22:12:39
(UTC-06:00)

Atlas 2A Centaur Rocket - Pass Details

Date: 03 December 2025
Orbit: 287 x 17780 km, 27.0° (Epoch: 07 December)

Event Time Altitude Azimuth Distance (km) Brightness Sun altitude
Exits shadow 05:17:08 40° 161° (SSE) 724 2.6 -24.2°
Drops below altitude 10° 05:18:58 10° 119° (ESE) 1,340 4.8 -23.8°
Sets 05:20:21 0° 112° (ESE) 2,005 6.1 -23.5°
